Temp
-4 -4 -4 -4 -5 -5 -6 -7 -7 -9 -9 -10 -10 -10 -10 -9 -9 -8 -7 -7 -7 -7 -7 -8 -8 -8 -8 -9 -9 -9 -9 -9 -10 -11 -11 -12 -13 -14 -14 -14 -15 -15 -14
-4 -4 -4 -4 -5 -5 -6 -7 -7 -9 -9 -10 -10 -10 -10 -9 -9 -8 -7 -7 -7 -7 -7 -7 -8 -8 -8 -9 -9 -9 -9 -9 -10 -11 -12 -13 -14 -14 -15 -15 -15 -15 -15
-4 -4 -4 -4 -5 -5 -6 -7 -8 -9 -9 -9 -9 -9 -10 -10 -9 -8 -7 -7 -7 -7 -7 -7 -7 -8 -8 -8 -9 -9 -9 -10 -10 -12 -13 -13 -14 -15 -15 -15 -15 -15 -14
-4 -4 -4 -4 -5 -5 -6 -7 -8 -9 -9 -9 -9 -9 -9 -9 -8 -7 -7 -7 -7 -7 -7 -7 -7 -8 -8 -8 -8 -8 -9 -9 -10 -12 -13 -13 -14 -14 -14 -15 -15 -15 -14
-3 -4 -4 -4 -5 -5 -6 -7 -8 -9 -9 -9 -9 -9 -9 -9 -8 -7 -7 -7 -7 -7 -7 -7 -7 -8 -8 -8 -8 -8 -8 -9 -11 -12 -12 -13 -13 -13 -14 -14 -15 -14 -14
-4 -4 -4 -4 -5 -6 -6 -6 -9 -9 -9 -9 -9 -9 -9 -9 -8 -7 -7 -7 -7 -7 -7 -7 -7 -7 -7 -8 -8 -8 -8 -10 -11 -12 -12 -13 -13 -13 -13 -14 -14 -14 -13
-4 -4 -4 -5 -5 -6 -7 -7 -9 -9 -9 -9 -9 -9 -9 -9 -8 -7 -7 -7 -7 -7 -7 -7 -7 -7 -7 -7 -8 -8 -9 -10 -11 -12 -12 -13 -13 -13 -13 -14 -13 -13 -12
-4 -4 -5 -5 -6 -6 -6 -8 -9 -9 -9 -9 -9 -9 -8 -9 -8 -7 -7 -7 -7 -7 -7 -6 -6 -7 -8 -8 -8 -8 -9 -10 -10 -12 -12 -13 -13 -12 -13 -13 -13 -13 -12
-5 -5 -5 -6 -6 -6 -7 -8 -8 -8 -8 -9 -9 -8 -9 -9 -8 -8 -7 -7 -7 -7 -7 -6 -6 -7 -7 -8 -8 -8 -9 -9 -10 -12 -12 -13 -13 -13 -13 -14 -14 -13 -12
-5 -6 -6 -6 -6 -7 -7 -8 -8 -8 -8 -8 -8 -9 -9 -9 -9 -8 -7 -7 -7 -7 -7 -7 -6 -7 -7 -8 -8 -8 -9 -9 -10 -11 -12 -12 -13 -13 -13 -14 -13 -13 -12
-6 -7 -7 -7 -7 -7 -7 -8 -8 -8 -8 -8 -8 -8 -9 -9 -9 -8 -7 -7 -7 -7 -7 -7 -6 -7 -7 -8 -8 -8 -9 -9 -10 -11 -12 -12 -13 -13 -14 -14 -13 -13 -12
-7 -7 -7 -7 -7 -7 -8 -8 -8 -8 -8 -8 -8 -8 -9 -8 -8 -8 -7 -7 -7 -7 -7 -7 -7 -7 -7 -8 -8 -8 -8 -9 -10 -11 -12 -12 -13 -14 -14 -14 -14 -12 -12
-7 -7 -7 -7 -7 -8 -8 -8 -8 -8 -8 -8 -8 -8 -8 -8 -8 -8 -8 -7 -7 -7 -7 -7 -7 -7 -7 -8 -8 -8 -8 -9 -10 -11 -12 -12 -13 -13 -13 -14 -14 -13 -13
-7 -8 -7 -8 -8 -8 -8 -8 -8 -8 -8 -8 -8 -8 -8 -8 -8 -8 -8 -7 -7 -7 -7 -7 -7 -7 -7 -8 -8 -8 -8 -9 -9 -10 -11 -12 -13 -13 -13 -13 -13 -14 -13
-8 -8 -8 -8 -8 -7 -7 -8 -8 -8 -7 -7 -8 -8 -8 -8 -8 -8 -8 -7 -7 -7 -7 -7 -7 -7 -7 -8 -8 -8 -8 -9 -9 -10 -11 -12 -13 -13 -13 -13 -13 -13 -14
-8 -8 -8 -7 -7 -7 -8 -8 -8 -8 -7 -7 -8 -8 -8 -8 -8 -8 -8 -7 -7 -7 -7 -7 -7 -7 -7 -8 -8 -8 -8 -9 -9 -10 -10 -11 -12 -13 -13 -13 -13 -13 -13
-7 -7 -7 -7 -7 -7 -8 -8 -8 -7 -8 -8 -8 -8 -8 -8 -8 -8 -8 -8 -7 -7 -7 -7 -7 -7 -7 -7 -8 -8 -8 -9 -9 -9 -10 -11 -12 -13 -13 -13 -13 -13 -13
-8 -8 -9 -8 -8 -8 -8 -8 -8 -8 -7 -8 -8 -8 -8 -8 -8 -8 -8 -8 -8 -7 -7 -7 -7 -7 -7 -7 -8 -8 -8 -8 -9 -9 -10 -11 -11 -12 -13 -13 -13 -13 -13
-8 -8 -8 -8 -8 -8 -8 -8 -8 -8 -8 -8 -8 -8 -8 -8 -8 -8 -8 -8 -8 -7 -7 -7 -7 -7 -7 -7 -8 -8 -8 -8 -9 -9 -10 -11 -11 -11 -13 -13 -13 -13 -13
-8 -8 -8 -8 -7 -7 -7 -7 -8 -8 -8 -8 -8 -8 -8 -8 -8 -8 -8 -8 -8 -8 -7 -7 -7 -7 -7 -7 -7 -8 -8 -9 -9 -9 -10 -10 -11 -11 -12 -13 -13 -13 -13
-9 -8 -8 -8 -7 -7 -7 -7 -7 -7 -7 -8 -8 -8 -8 -9 -8 -9 -8 -8 -8 -8 -8 -7 -7 -7 -7 -7 -7 -8 -8 -9 -9 -9 -9 -10 -10 -11 -12 -12 -13 -13 -14
-8 -8 -7 -7 -7 -7 -7 -7 -7 -7 -7 -7 -8 -8 -8 -9 -9 -8 -8 -8 -8 -8 -8 -8 -8 -7 -8 -8 -7 -8 -8 -9 -9 -9 -9 -10 -10 -11 -11 -12 -12 -13 -13
-8 -7 -6 -6 -6 -6 -6 -6 -6 -7 -6 -6 -7 -8 -8 -8 -9 -9 -8 -8 -8 -8 -8 -8 -8 -8 -8 -8 -8 -7 -8 -9 -9 -9 -9 -10 -10 -10 -11 -12 -12 -12 -13
-9 -8 -7 -7 -6 -6 -6 -6 -7 -7 -7 -7 -7 -8 -8 -8 -9 -8 -8 -8 -8 -8 -8 -8 -8 -8 -8 -8 -8 -8 -8 -8 -9 -9 -9 -9 -10 -10 -11 -11 -12 -12 -12
-9 -9 -8 -8 -7 -7 -7 -6 -7 -7 -8 -7 -7 -8 -8 -8 -8 -8 -9 -9 -9 -8 -8 -8 -8 -8 -8 -8 -8 -8 -8 -8 -8 -9 -9 -9 -10 -10 -10 -11 -12 -12 -12
-9 -9 -9 -8 -7 -7 -7 -7 -7 -7 -8 -8 -8 -8 -8 -8 -9 -9 -9 -9 -9 -9 -9 -9 -9 -8 -9 -9 -9 -8 -9 -9 -8 -8 -9 -9 -10 -10 -10 -11 -11 -12 -12
Height
5925 5927 5928 5930 5932 5933 5935 5936 5936 5936 5937 5938 5938 5936 5933 5929 5924 5920 5915 5910 5905 5900 5894 5888 5881 5873 5865 5857 5849 5841 5832 5823 5813 5802 5793 5782 5772 5762 5753 5745 5738 5731 5726
5924 5925 5927 5929 5930 5932 5934 5935 5936 5937 5937 5937 5936 5934 5933 5928 5923 5918 5913 5909 5904 5898 5891 5885 5879 5871 5863 5854 5846 5837 5829 5819 5808 5797 5786 5775 5765 5755 5746 5736 5728 5721 5716
5923 5925 5926 5928 5930 5931 5933 5935 5935 5936 5937 5936 5935 5934 5931 5927 5922 5916 5912 5907 5902 5896 5890 5883 5876 5868 5860 5852 5844 5835 5826 5815 5804 5793 5781 5770 5760 5749 5740 5731 5724 5716 5710
5921 5924 5925 5927 5929 5930 5932 5934 5935 5936 5937 5937 5936 5934 5931 5926 5921 5916 5911 5907 5902 5895 5889 5883 5875 5866 5859 5851 5842 5833 5824 5813 5801 5789 5778 5767 5757 5748 5738 5728 5721 5714 5706
5919 5922 5923 5925 5928 5929 5930 5933 5934 5936 5937 5937 5936 5934 5931 5926 5920 5915 5911 5906 5901 5894 5888 5881 5873 5865 5857 5849 5841 5832 5822 5811 5799 5788 5777 5766 5756 5747 5739 5729 5718 5710 5705
5916 5918 5921 5924 5926 5928 5929 5932 5934 5935 5936 5936 5935 5933 5929 5925 5920 5915 5911 5906 5900 5894 5887 5879 5872 5864 5856 5849 5841 5831 5821 5810 5799 5787 5776 5766 5758 5747 5739 5730 5720 5713 5706
5913 5916 5920 5922 5925 5928 5929 5930 5933 5934 5935 5935 5934 5932 5929 5925 5919 5914 5909 5905 5899 5893 5886 5879 5872 5865 5857 5849 5841 5833 5821 5810 5799 5787 5777 5768 5759 5750 5741 5730 5721 5714 5707
5909 5913 5917 5920 5923 5927 5928 5929 5931 5933 5935 5934 5933 5931 5928 5924 5919 5913 5909 5905 5899 5893 5886 5880 5873 5864 5856 5848 5841 5832 5822 5811 5800 5789 5779 5770 5761 5751 5741 5730 5721 5716 5710
5907 5910 5914 5918 5922 5926 5927 5929 5931 5933 5933 5933 5932 5930 5927 5924 5918 5913 5908 5904 5899 5893 5887 5881 5873 5865 5856 5849 5841 5833 5824 5814 5803 5792 5782 5773 5764 5754 5745 5734 5731 5723 5717
5905 5908 5912 5916 5920 5923 5926 5929 5931 5932 5932 5932 5931 5929 5926 5923 5918 5912 5908 5903 5898 5893 5887 5881 5873 5865 5857 5850 5843 5835 5827 5818 5807 5796 5786 5777 5768 5759 5751 5744 5736 5731 5724
5899 5904 5910 5914 5917 5921 5925 5927 5929 5930 5931 5931 5930 5928 5925 5921 5917 5912 5907 5903 5898 5893 5887 5881 5875 5866 5858 5853 5845 5838 5830 5821 5810 5800 5790 5781 5772 5764 5758 5750 5743 5737 5732
5897 5903 5908 5912 5917 5920 5922 5925 5927 5928 5928 5928 5927 5926 5923 5921 5916 5911 5907 5903 5898 5893 5888 5881 5875 5868 5861 5854 5848 5842 5833 5824 5814 5805 5796 5787 5778 5771 5765 5758 5750 5744 5738
5896 5901 5907 5911 5915 5918 5921 5923 5925 5925 5925 5925 5925 5924 5922 5919 5916 5911 5906 5902 5897 5893 5888 5882 5876 5870 5864 5857 5850 5844 5837 5827 5819 5810 5802 5793 5785 5778 5771 5765 5758 5749 5743
5897 5901 5905 5909 5912 5915 5918 5919 5921 5921 5921 5921 5921 5920 5920 5917 5913 5909 5905 5901 5897 5892 5889 5883 5877 5871 5865 5858 5852 5846 5839 5832 5824 5817 5809 5801 5792 5785 5778 5773 5766 5758 5750
5894 5898 5902 5905 5909 5911 5913 5914 5916 5917 5917 5917 5917 5916 5915 5914 5912 5908 5904 5900 5896 5892 5888 5883 5877 5872 5865 5859 5854 5848 5842 5836 5830 5822 5816 5809 5802 5793 5787 5781 5774 5768 5762
5889 5892 5896 5900 5902 5905 5905 5906 5909 5911 5912 5913 5912 5912 5912 5911 5908 5906 5903 5898 5895 5891 5887 5882 5877 5872 5866 5861 5856 5851 5844 5839 5833 5827 5821 5815 5809 5802 5795 5789 5783 5776 5772
5884 5887 5891 5893 5896 5898 5898 5900 5901 5902 5901 5905 5904 5906 5906 5907 5905 5902 5900 5897 5892 5889 5886 5882 5878 5873 5867 5862 5857 5853 5848 5841 5838 5832 5825 5820 5814 5809 5803 5796 5791 5784 5780
5876 5878 5881 5883 5886 5886 5887 5891 5894 5896 5897 5899 5899 5900 5900 5900 5900 5898 5897 5894 5890 5887 5884 5882 5877 5873 5868 5863 5859 5854 5849 5844 5840 5836 5831 5825 5819 5813 5809 5803 5799 5794 5788
5868 5871 5873 5876 5878 5881 5882 5885 5885 5887 5889 5891 5892 5894 5894 5894 5894 5893 5892 5890 5887 5884 5882 5880 5876 5872 5868 5864 5859 5854 5850 5846 5842 5838 5835 5830 5825 5819 5814 5808 5805 5801 5797
5857 5859 5862 5865 5868 5871 5873 5876 5877 5879 5881 5880 5883 5885 5886 5887 5888 5887 5886 5885 5883 5881 5879 5878 5874 5871 5867 5864 5859 5854 5851 5848 5844 5839 5836 5834 5830 5825 5819 5814 5809 5806 5803
5844 5846 5849 5852 5855 5858 5861 5862 5864 5867 5870 5872 5873 5875 5876 5876 5879 5879 5879 5879 5878 5876 5875 5874 5872 5868 5865 5862 5858 5853 5850 5847 5843 5841 5837 5833 5832 5830 5825 5819 5814 5810 5808
5831 5834 5837 5840 5841 5844 5847 5849 5850 5852 5855 5858 5861 5862 5865 5865 5869 5870 5871 5871 5872 5872 5871 5870 5868 5865 5862 5859 5857 5852 5849 5847 5843 5840 5838 5835 5832 5830 5828 5825 5819 5814 5810
5818 5820 5823 5824 5826 5827 5831 5833 5835 5837 5839 5842 5847 5848 5852 5855 5857 5859 5861 5862 5865 5865 5865 5864 5863 5861 5859 5857 5854 5850 5847 5846 5844 5840 5838 5836 5833 5830 5829 5826 5823 5820 5814
5803 5804 5806 5807 5809 5812 5815 5819 5823 5823 5826 5829 5833 5836 5841 5845 5846 5848 5850 5852 5855 5857 5858 5858 5858 5858 5856 5854 5851 5849 5846 5844 5842 5839 5837 5836 5834 5831 5829 5827 5824 5822 5820
5791 5791 5793 5796 5798 5801 5803 5808 5810 5811 5814 5817 5819 5823 5827 5832 5834 5836 5839 5842 5846 5848 5849 5851 5851 5851 5852 5850 5849 5846 5845 5842 5840 5837 5834 5834 5832 5831 5829 5828 5826 5823 5820
5778 5780 5782 5784 5787 5789 5792 5795 5797 5799 5801 5805 5807 5810 5814 5819 5821 5824 5828 5831 5834 5836 5838 5841 5843 5844 5844 5844 5844 5842 5840 5838 5838 5835 5832 5831 5830 5829 5827 5827 5826 5823 5820
Wind_Speed
15 14 12 11 11 10 7 5 6 5 4 8 9 13 17 18 22 25 22 22 24 25 28 30 33 34 36 38 37 40 42 43 46 45 43 42 40 41 41 39 37 35 33
16 15 14 13 13 10 8 8 5 5 5 9 15 15 20 23 25 26 23 24 27 30 32 35 37 38 39 38 39 42 43 46 48 47 45 44 45 43 39 35 30 25 22
15 14 12 13 13 11 10 9 7 6 10 13 17 21 22 25 28 28 25 26 30 32 35 38 40 41 40 40 41 42 45 49 49 48 46 48 45 39 35 33 29 28 24
17 15 14 14 14 12 12 8 8 12 11 13 16 20 24 26 26 26 26 27 30 33 36 39 40 41 41 40 42 43 47 51 52 50 48 47 39 36 37 35 33 32 25
19 17 16 15 15 14 12 11 13 13 12 12 16 19 23 27 27 27 27 27 31 34 37 38 40 41 41 42 42 45 50 53 53 49 49 43 37 40 38 37 36 31 29
21 20 17 15 16 16 14 12 14 12 10 13 17 21 25 28 28 26 26 29 31 33 36 39 41 41 41 43 42 45 51 54 53 49 48 37 41 43 40 38 32 34 28
24 20 17 17 18 17 16 13 12 11 11 12 16 20 26 31 28 26 26 29 31 33 35 39 40 40 41 44 42 45 51 53 51 49 45 37 42 42 41 41 36 36 28
24 21 19 18 20 18 15 12 9 9 8 11 15 19 24 29 31 27 27 29 31 32 34 37 39 39 41 42 41 44 51 53 51 47 42 39 43 43 44 44 41 39 33
24 22 20 21 21 18 12 9 6 6 6 10 15 19 24 28 31 29 27 28 30 31 34 36 38 39 40 40 38 44 49 54 51 47 40 41 43 42 45 43 36 36 36
23 22 23 25 22 17 12 7 3 2 5 10 14 20 24 28 30 31 26 28 29 29 32 34 38 39 39 39 38 43 48 53 52 46 44 39 41 40 43 39 31 35 36
26 26 28 25 22 17 12 7 5 6 8 11 16 21 24 28 30 32 26 27 28 28 30 33 36 37 37 38 37 40 46 50 51 45 46 40 37 38 43 42 32 32 34
30 30 29 24 18 13 10 7 8 9 12 15 17 22 24 28 28 31 27 25 27 27 29 31 34 36 35 35 35 38 43 47 50 45 44 42 36 36 42 42 34 30 36
29 31 26 18 16 15 13 13 13 14 16 18 20 22 23 26 27 32 28 25 26 26 27 29 32 34 35 33 33 35 40 44 48 44 41 42 37 35 37 40 39 31 34
32 28 23 22 22 21 18 18 18 20 23 22 21 21 20 20 26 32 32 25 26 26 26 27 30 33 33 32 31 33 37 42 45 45 41 40 37 36 36 36 41 48 39
34 31 30 28 27 25 22 22 22 21 20 20 20 18 18 20 25 29 36 28 26 26 26 25 28 30 31 31 28 30 33 39 42 44 40 38 38 34 32 32 36 41 48
41 39 37 34 32 31 33 25 23 21 21 20 18 19 20 22 25 29 33 33 26 26 25 25 25 28 28 28 25 27 30 34 36 40 40 36 34 34 32 31 33 38 39
40 38 39 38 37 37 39 29 29 29 27 29 17 21 23 23 25 28 33 36 28 25 25 24 23 25 25 25 23 24 27 29 33 36 37 35 32 31 30 32 33 34 36
43 41 43 40 41 47 44 31 36 37 31 24 25 29 33 23 28 31 34 35 30 25 25 23 21 22 22 22 21 21 22 25 29 31 35 35 33 29 29 29 31 33 33
47 48 48 48 47 45 44 39 49 41 29 31 31 33 33 35 32 31 34 34 32 25 23 23 19 19 20 20 20 18 20 20 24 28 30 31 31 30 27 27 27 28 29
46 50 51 50 51 51 49 48 49 45 44 43 34 39 38 38 34 34 32 36 32 26 22 22 18 18 18 18 18 18 18 18 20 23 25 28 27 27 25 24 24 25 23
46 47 46 47 50 49 51 48 46 45 48 50 44 43 43 40 36 36 31 35 31 27 22 21 17 16 16 16 16 15 15 14 14 18 20 22 24 23 23 23 21 21 21
55 55 52 54 55 55 57 59 61 62 58 53 53 48 45 45 38 35 33 35 30 27 24 21 18 15 14 14 14 13 15 14 12 13 15 18 19 20 20 20 20 19 19
48 53 57 54 56 55 50 51 51 51 49 49 54 53 50 44 46 34 36 36 31 27 26 23 19 16 14 14 14 10 13 14 12 10 13 14 15 15 17 16 15 17 17
41 44 45 45 45 43 44 44 41 43 43 45 48 50 45 42 41 38 38 37 32 28 27 25 22 20 16 13 13 9 9 11 12 11 10 12 13 14 13 13 14 13 14
36 32 37 42 41 40 40 40 40 38 40 41 43 45 44 39 40 41 40 38 33 30 27 28 25 23 20 16 14 11 9 7 10 10 10 11 12 12 13 11 9 10 11
37 34 33 37 42 40 38 39 41 41 40 40 41 41 41 40 43 45 43 41 36 33 28 32 28 26 23 20 18 14 11 9 8 12 12 12 12 13 13 13 12 9 8
Wind_Direction
202 208 211 213 212 224 234 234 228 156 98 58 34 27 16 8 11 9 7 2 3 3 359 353 351 352 350 348 345 347 348 347 344 342 343 337 333 331 327 321 315 311 306
208 203 211 219 218 222 225 218 206 148 92 48 27 25 17 15 14 12 5 6 6 4 0 355 352 351 351 350 350 351 351 347 347 347 344 343 342 338 337 338 336 336 331
211 209 208 214 220 213 218 212 194 141 76 54 27 18 14 11 15 12 7 6 6 3 0 356 351 351 352 353 354 355 351 350 351 351 350 348 347 352 355 357 360 359 358
210 208 209 209 217 215 211 200 173 104 75 48 27 17 12 10 14 13 7 6 5 3 360 356 352 351 354 355 357 356 352 352 354 355 353 353 1 3 360 359 354 356 3
214 211 213 211 214 216 204 180 135 105 72 45 27 13 9 11 11 12 6 5 5 4 360 356 352 352 357 357 358 356 353 354 357 357 357 1 9 5 4 2 360 12 13
215 215 214 209 213 211 197 177 124 100 73 43 28 15 8 10 9 8 6 5 4 4 360 355 352 353 357 357 360 356 354 358 1 359 2 10 11 8 9 11 21 19 13
216 215 211 210 207 202 190 151 119 96 70 41 20 7 3 2 7 5 4 4 2 3 2 356 354 352 358 359 1 357 357 1 3 2 6 12 12 9 13 19 22 21 30
213 210 207 203 201 196 181 133 115 92 54 27 9 359 359 356 3 2 2 1 1 1 2 359 355 354 1 2 0 358 360 3 5 5 9 13 13 11 16 20 26 22 29
210 206 201 196 192 188 159 141 126 86 37 8 359 356 355 354 358 1 359 359 360 1 2 359 357 358 2 2 1 0 2 4 7 7 10 16 16 15 20 22 25 27 30
206 199 196 189 184 171 165 157 163 20 6 354 347 346 348 349 354 360 356 356 358 359 2 1 359 360 2 0 3 1 3 4 10 10 14 16 18 19 24 26 29 33 31
198 193 189 181 176 178 170 181 229 286 314 330 335 335 340 340 349 356 352 353 356 357 359 359 1 360 1 1 6 3 5 6 10 14 18 20 23 26 28 26 28 32 30
191 192 186 182 185 178 184 208 252 279 296 308 320 323 327 334 348 352 350 350 353 354 358 359 2 360 1 2 6 3 6 8 11 16 19 23 27 33 33 27 32 34 36
196 194 192 190 194 204 225 246 257 273 283 293 303 310 323 326 350 355 349 348 349 350 354 356 360 360 1 360 6 2 7 9 11 16 21 25 30 35 38 35 32 29 35
198 196 199 204 213 226 235 249 265 272 279 283 297 307 311 332 349 354 351 344 344 347 350 353 358 1 359 1 5 4 8 10 11 13 20 25 33 35 35 39 39 40 42
201 205 212 219 226 232 240 251 257 266 275 280 289 308 324 334 339 346 350 341 338 343 346 349 354 1 0 2 5 6 9 13 10 14 17 23 31 38 36 38 38 41 48
211 215 219 224 227 234 239 248 256 260 265 269 282 297 310 322 332 336 343 340 332 337 341 344 351 359 1 3 3 7 11 13 13 15 17 20 27 37 41 39 39 41 48
218 222 226 229 234 239 243 244 259 255 246 249 259 284 294 312 319 326 331 335 328 329 334 338 348 354 0 1 1 5 8 13 14 13 18 19 24 28 40 42 45 47 48
228 232 233 237 244 238 242 237 249 260 254 277 282 282 290 297 304 315 323 326 325 320 326 332 340 348 358 358 2 5 6 11 13 15 16 18 23 25 30 41 41 47 53
234 238 242 246 246 250 259 251 260 268 256 258 267 274 280 292 294 302 311 316 321 310 318 324 332 341 352 353 357 2 4 10 12 15 16 18 21 25 27 38 44 45 52
238 242 243 245 246 249 249 253 258 261 264 270 259 268 274 281 287 292 303 306 314 302 306 313 323 330 345 347 352 358 358 4 12 11 17 17 18 23 28 34 43 44 47
248 243 246 249 246 246 247 246 250 261 264 260 264 265 269 273 277 285 297 295 304 294 293 300 309 317 333 336 339 355 351 352 5 9 9 18 16 18 25 31 37 40 43
250 246 247 253 252 251 258 259 263 266 266 253 253 258 262 269 272 282 289 286 292 288 283 288 297 303 321 330 335 351 348 337 346 1 4 8 16 14 19 28 33 40 41
256 254 255 256 254 254 254 254 256 258 256 248 247 254 260 270 271 273 276 278 281 278 272 275 283 287 298 313 320 342 346 331 335 342 351 354 6 10 12 18 30 33 43
260 263 260 257 255 253 254 255 256 255 250 248 248 252 255 259 265 265 264 268 272 268 264 268 273 282 282 296 309 323 343 341 329 326 331 337 343 359 4 10 12 24 25
257 264 260 255 256 256 254 254 255 253 248 249 249 250 249 250 254 255 256 260 265 262 256 262 263 272 276 280 293 313 328 332 328 328 318 321 324 336 342 352 358 10 15
255 259 265 262 256 255 255 254 253 253 251 250 250 250 250 246 244 247 250 253 255 251 247 257 258 263 267 266 277 291 306 316 313 325 334 316 310 317 324 330 337 342 355